Tracking 31027 objects as of 19-Jul-2025
HD Live streaming from Space Station
objects crossing your sky now

SL-14 DEB

Track SL-14 DEB now!
10-day predictions


NORAD ID: 19139
Int'l Code: 1978-100M
Perigee: 1,704.8 km
Apogee: 1,941.7 km
Inclination: 82.1 °
Period: 123.0 minutes
Semi major axis: 8194 km
RCS: 0.0604 m2 (small)
Launch date: October 26, 1978
Source: Commonwealth of Independent States (former USSR) (CIS)
Launch site: PLESETSK MISSILE AND SPACE COMPLEX (PKMTR)

Note: This is SATELLITE DEBRIS
Your satellite tracking list
STARLINK-31611
Track 1 satellite(s)




NASA's NSSDC Master Catalog

Two Line Element Set (TLE):
1 19139U 78100M   25199.55755946  .00000030  00000-0  39418-3 0  9992
2 19139  82.1393 224.7959 0144590 246.3412 271.5136 11.70415968588091
Source of the keplerian elements: AFSPC